Location: *
(42.0175°N, 9.4056°E)
Time: 16:24:57
(UTC+00:00)

Cosmos 1745 Rocket - Pass Details

Date: 25 August 2019
Orbit: 952 x 999 km, 83.0° (Epoch: 21 September)

Event Time Altitude Azimuth Distance (km) Brightness Sun altitude
Rises 18:45:32 0° 359° (N) 3,640 7.3 -7.4°
Reaches altitude 10° 18:48:13 10° 7° (N) 2,688 6.5 -7.9°
Maximum altitude 18:53:56 39° 76° (ENE) 1,389 4.5 -8.9°
Drops below altitude 10° 18:59:36 10° 144° (SE) 2,676 5.8 -9.8°
Enters shadow 19:00:27 - 147° (SSE) 2,971 6.0 -10.0°
